Anniston, AL

9:44 AM CST on November 12, 2019 (GMT -0600)
Anniston Metro

Weather History for KANB - September, 2019

Change the Weather History Date:

Wednesday, September 18, 2019

  Actual Average Record
Temperature  
Mean Temperature 82 °F 73 °F  
Max Temperature 98 °F 84 °F 98 °F (2019)
Min Temperature 66 °F 62 °F 43 °F (1903)
Degree Days  
Heating Degree Days 0    
Month to date heating degree days 0  
Since 1 July heating degree days 0  
Cooling Degree Days 16    
Growing Degree Days 32 (Base 50)    
Moisture  
Dew Point 65 °F    
Average Humidity 64    
Maximum Humidity 100    
Minimum Humidity 28    
Precipitation  
Precipitation 0.00 in 0.08 in 0.86 in (1966)
Month to date precipitation 0.42 1.77  
Year to date precipitation 39.59 36.69  
Sea Level Pressure  
Sea Level Pressure 29.97 in    
Wind  
Wind Speed 6 mph (NE)    
Max Wind Speed 13 mph    
Max Gust Speed 19 mph    
Visibility 10 miles    
Events      
T = Trace of Precipitation, MM = Missing Value Source: NWS Daily Summary

Daily Weather History Graph

Daily Weather History Graph

Search for Another Location

Airport or City:

Astronomy

Sep. 18, 2019 Rise Set
Actual Time 6:28 AM CDT 6:46 PM CDT
Civil Twilight 6:03 AM CDT 7:10 PM CDT
Nautical Twilight 5:34 AM CDT 7:39 PM CDT
Astronomical Twilight 5:05 AM CDT 8:09 PM CDT
Moon 9:31 PM CDT (9/18) 10:20 AM CDT (9/18)
Length of Visible Light 13h 07m
Length of Day
12h 17m
Waning Gibbous, 82% of the Moon is Illuminated
Sep 18
Waning Gibbous
Sep 21
Last Quarter
Sep 28
New
Oct 5
First Quarter
Oct 13
Full

Hourly Weather History & Observations

Time (CDT) Temp. Heat Index Dew Point Humidity Pressure Visibility Wind Dir Wind Speed Gust Speed Precip Events Conditions
12:53 AM 72.0 °F - 66.9 °F 84% 29.94 in 10.0 mi Calm Calm - N/A   Clear
1:53 AM 70.0 °F - 66.0 °F 87% 29.94 in 10.0 mi Calm Calm - N/A   Clear
2:53 AM 70.0 °F - 66.0 °F 87% 29.94 in 10.0 mi Calm Calm - N/A   Clear
3:53 AM 69.1 °F - 66.0 °F 90% 29.94 in 10.0 mi Calm Calm - N/A   Clear
4:53 AM 66.9 °F - 66.0 °F 97% 29.95 in 9.0 mi Calm Calm - N/A   Clear
5:53 AM 68.0 °F - 66.0 °F 93% 29.96 in 10.0 mi Calm Calm - N/A   Clear
6:53 AM 66.9 °F - 64.9 °F 93% 29.98 in 7.0 mi Calm Calm - N/A   Clear
7:53 AM 72.0 °F - 66.9 °F 84% 29.99 in 10.0 mi East 3.5 mph - N/A   Clear
8:53 AM 80.1 °F 82.3 °F 66.9 °F 64% 29.99 in 10.0 mi ENE 5.8 mph - N/A   Clear
9:53 AM 82.9 °F 85.4 °F 66.9 °F 58% 30.00 in 10.0 mi ENE 9.2 mph - N/A   Clear
10:53 AM 87.1 °F 90.6 °F 68.0 °F 53% 30.00 in 10.0 mi ENE 5.8 mph - N/A   Clear
11:53 AM 89.1 °F 92.9 °F 68.0 °F 50% 29.99 in 10.0 mi East 5.8 mph - N/A   Clear
12:53 PM 95.0 °F 96.0 °F 63.0 °F 34% 29.98 in 10.0 mi Variable 4.6 mph - N/A   Clear
1:53 PM 96.1 °F 96.9 °F 62.1 °F 32% 29.96 in 10.0 mi North 8.1 mph - N/A   Clear
2:53 PM 96.1 °F 96.4 °F 61.0 °F 31% 29.94 in 10.0 mi North 10.4 mph - N/A   Partly Cloudy
3:53 PM 97.0 °F 96.9 °F 60.1 °F 29% 29.93 in 10.0 mi Variable 6.9 mph - N/A   Clear
4:53 PM 95.0 °F 93.7 °F 57.0 °F 28% 29.93 in 10.0 mi North 9.2 mph - N/A   Clear
5:53 PM 93.0 °F 91.4 °F 55.9 °F 29% 29.94 in 10.0 mi North 5.8 mph - N/A   Clear
6:53 PM 86.0 °F 89.4 °F 68.0 °F 55% 29.96 in 10.0 mi ENE 9.2 mph 18.4 mph N/A   Clear
7:53 PM 82.9 °F 85.8 °F 68.0 °F 60% 29.99 in 10.0 mi East 11.5 mph - N/A   Clear
8:53 PM 81.0 °F 83.8 °F 68.0 °F 65% 30.01 in 10.0 mi ENE 8.1 mph - N/A   Clear
9:53 PM 79.0 °F - 68.0 °F 69% 30.03 in 10.0 mi ENE 5.8 mph - N/A   Clear
10:53 PM 77.0 °F - 66.0 °F 69% 30.03 in 10.0 mi ENE 8.1 mph - N/A   Clear
11:53 PM 75.9 °F - 64.9 °F 69% 30.04 in 10.0 mi ENE 8.1 mph - N/A   Clear